Location: Azul
(36.7830°S, 59.8500°W)
Time: 17:46:51
(UTC-03:00)

BEESAT - Pass Details

Date: 27 October 2021
Orbit: 700 x 707 km, 98.6° (Epoch: 06 December)

Event Time Altitude Azimuth Distance (km) Brightness Sun altitude
Rises 21:03:07 0° 331° (NNW) 3,092 ? -18.1°
Reaches altitude 10° 21:06:19 10° 308° (NW) 2,186 ? -18.7°
Maximum altitude 21:09:02 15° 273° (W) 1,873 ? -19.1°
Drops below altitude 10° 21:11:47 10° 238° (WSW) 2,205 ? -19.6°
Sets 21:15:03 0° 214° (SW) 3,135 ? -20.1°
